Regional Weather Roundup
Issued by NWS Jackson, KY

Home | Current Version | Previous Version | Text Only | Print | Product List | Glossary Off
Versions: 1 2 3 4 5 6 7 8 9 10 11 12 13 14 15 16 17 18 19 20 21 22 23 24 25 26 27 28

000
ASUS43 KJKL 230610
RWRJKL

EAST KENTUCKY HOURLY WEATHER ROUNDUP
NATIONAL WEATHER SERVICE JACKSON KY
200 AM EDT FRI JUN 23 2017

NOTE: "FAIR" INDICATES FEW OR NO CLOUDS BELOW 12,000 FEET WITH
NO SIGNIFICANT WEATHER AND/OR OBSTRUCTIONS TO VISIBILITY.

* THESE REPORTS ARE NOT UNDER NWS QUALITY CONTROL AND MAY NOT
  REPORT WEATHER SUCH AS PRECIPITATION AND FOG.

KYZ079-080-083-085-087-088-110-112-115-119-120-230700
...EASTERN KENTUCKY...

CITY           SKY/WX    TMP DP  RH WIND       PRES   REMARKS
JACKSON        MOCLDY    70  68  93 VRB3      29.94F
6HR MIN TEMP:  69; 6HR MAX TEMP:  70; 6HR PCP:  0.04;

LONDON         CLOUDY    72  68  87 S8        29.94F
6HR MIN TEMP:  70; 6HR MAX TEMP:  72; 6HR PCP:  0.01;

SOMERSET*      CLOUDY    70  70 100 S5        29.93F
MONTICELLO*    CLOUDY    75  71  87 VRB7      29.93F
6HR MIN TEMP:  73; 6HR MAX TEMP:  75; 6HR PCP: TRACE;

WILLIAMSBURG*  CLOUDY    72  72 100 SE5       29.95F
MIDDLESBORO*   HVY RAIN  72  72 100 S6        29.99S
6HR MIN TEMP:  70; 6HR MAX TEMP:  73; 6HR PCP:  0.17;

HARLAN APT*    CLOUDY    70  68  94 NE3       29.99F
PIKE CO APT*   CLOUDY    70  70 100 S8        29.96F
BIG SANDY APT* CLOUDY    71  70  96 S7        29.95F
6HR MIN TEMP:  70; 6HR MAX TEMP:  73;

MOREHEAD APT*  CLOUDY    70  68  94 S7        29.92F FOG
$$

KYZ035-036-041-042-044-050-067-078-099-230700
...CENTRAL KENTUCKY...

CITY           SKY/WX    TMP DP  RH WIND       PRES   REMARKS
MT STERLING*   CLOUDY    70  70 100 SW9       29.91F
FLEMING/MASON* MOCLDY    69  69  98 S8        29.89F
DANVILLE*      CLOUDY    72  70  94 S7        29.91F
LEXINGTON      CLOUDY    73  70  90 S10       29.89F
6HR MIN TEMP:  70; 6HR MAX TEMP:  73; 6HR PCP:  0.19;

FRANKFORT      MOCLDY    73  69  87 S6        29.86F
6HR MIN TEMP:  70; 6HR MAX TEMP:  73; 6HR PCP:  0.16;

LOUISVILLE     CLOUDY    76  73  91 S13       29.83F
6HR MIN TEMP:  72; 6HR MAX TEMP:  76; 6HR PCP:  0.01;

LEBANON*       MOCLDY    73  72  94 S12       29.88F
GLASGOW*       CLOUDY    75  74  99 SW7       29.88S
BOWLING GREEN  CLOUDY    78  74  87 S12       29.85F
6HR MIN TEMP:  77; 6HR MAX TEMP:  79;

$$

KYZ091>093-OHZ055-061-077-WVZ005-015-034-035-042-230700
...SOUTHERN OHIO/WEST VIRGINIA...

CITY           SKY/WX    TMP DP  RH WIND       PRES   REMARKS
COVINGTON      CLOUDY    72  71  97 S9        29.85F
COLUMBUS       CLOUDY    72  70  93 S8        29.85F
DAYTON         LGT RAIN  70  68  93 S10       29.84F FOG
WILMINGTON     CLOUDY    69  69 100 S8        29.85F
HUNTINGTON     CLOUDY    71  68  90 S8        29.90F
CHARLESTON       N/A     71  67  87 S6        29.92F
PINEVILLE*     CLOUDY    68  67  96 MISG      30.06S
BECKLEY        CLOUDY    66  64  93 S8        30.03F
BLUEFIELD      CLOUDY    67  63  87 SW5       30.07F
LOGAN CO APT*  CLOUDY    70  66  88 CALM      29.97F
$$

VAZ002-007-008-TNZ017-027-036-066-071-230700
...SOUTHWEST VIRGINIA/EAST TENNESSEE...

CITY           SKY/WX    TMP DP  RH WIND       PRES   REMARKS
WISE*          LGT RAIN  70  70 100 S10       30.06F
JONESVILLE*    CLOUDY    70  70 100 CALM      30.02F
ABINGDON*      LGT RAIN  71  70  96 CALM      30.06F
BRISTOL        CLOUDY    72  69  90 CALM      30.03F
MORRISTOWN*    CLOUDY    72  70  94 CALM      30.00S
SEVIERVILLE*   CLOUDY    72  72 100 CALM      29.98F
KNOXVILLE      CLOUDY    72  71  97 CALM      29.97F
LAFOLLETTE*    CLOUDY    73  72  94 S8G15     30.00F
OAK RIDGE      LGT RAIN  73  71  93 CALM      29.99F
CROSSVILLE     CLOUDY    72  69  90 VRB5      30.00F
NASHVILLE      CLOUDY    77  73  87 S7        29.89S
$$

...KEY TO REMARKS...
VSB - VISIBILITY IN MILES
WCI - WIND CHILL INDEX
HX  - HEAT INDEX

$$




USA.gov is the U.S. government's official web portal to all federal, state and local government web resources and services.